This is the latest recevied weather packets stored in our database for station/object WX4HP-13. If no packets are shown the sender has not sent any weather packets the latest 10 day(s).
| Time | Temp. | Humidity | Pressure | Rain* | Wind** | Luminosity | Snow |
|---|---|---|---|---|---|---|---|
| 1777752597 | 17.78° C | 34% | 1014.8 hPa | 0 mm | - | - | - |
| 1777752297 | 18.33° C | 36% | 1014.7 hPa | 0 mm | - | - | - |
| 1777751996 | 18.89° C | 33% | 1014.8 hPa | 0 mm | - | - | - |
| 1777751695 | 19.44° C | 33% | 1014.7 hPa | 0 mm | - | - | - |
| 1777751396 | 19.44° C | 34% | 1014.7 hPa | 0 mm | - | - | - |
| 1777750795 | 20° C | 33% | 1014.8 hPa | 0 mm | - | - | - |
| 1777750495 | 19.44° C | 36% | 1014.9 hPa | 0 mm | - | - | - |
| 1777750196 | 18.33° C | 36% | 1015 hPa | 0 mm | - | - | - |
| 1777749896 | 17.78° C | 35% | 1015.2 hPa | 0 mm | - | - | - |
| 1777749597 | 17.78° C | 33% | 1015.1 hPa | 0 mm | - | - | - |
| 1777749297 | 17.22° C | 34% | 1015.2 hPa | 0 mm | - | - | - |
| 1777748997 | 17.22° C | 35% | 1015.3 hPa | 0 mm | - | - | - |
| 1777748697 | 17.78° C | 34% | 1015.3 hPa | 0 mm | - | - | - |
| 1777748396 | 17.78° C | 35% | 1015.2 hPa | 0 mm | - | - | - |
| 1777748097 | 18.33° C | 34% | 1015.3 hPa | 0 mm | - | - | - |
| 1777747796 | 18.33° C | 33% | 1015.3 hPa | 0 mm | - | - | - |
| 1777747497 | 18.33° C | 33% | 1015.3 hPa | 0 mm | - | - | - |
| 1777747197 | 18.33° C | 34% | 1015.3 hPa | 0 mm | - | - | - |
| 1777746896 | 17.78° C | 33% | 1015.3 hPa | 0 mm | - | - | - |
| 1777746596 | 17.78° C | 32% | 1015.4 hPa | 0 mm | - | - | - |
| 1777746296 | 17.78° C | 31% | 1015.5 hPa | 0 mm | - | - | - |
| 1777745996 | 17.78° C | 33% | 1015.5 hPa | 0 mm | - | - | - |
| 1777745696 | 17.78° C | 33% | 1015.5 hPa | 0 mm | - | - | - |
| 1777745395 | 17.78° C | 31% | 1015.5 hPa | 0 mm | - | - | - |
| 1777745096 | 17.78° C | 34% | 1015.6 hPa | 0 mm | - | - | - |
* Rain latest hour (hover to see other rain measurements)
** Current wind speed in m/s (hover to see current wind gust speed)